Location: Risskov
(56.1972°N, 10.2480°E)
Time: 22:15:22
(UTC+00:00)

SL-16 R/B - Visible Passes

Search period start: 23 October 2020 00:00
Search period end: 02 November 2020 00:00
Orbit: 842 x 848 km, 71.0° (Epoch: 22 October)

Date Brightness Start Highest point End Pass type
(mag) Time Alt. Az. Time Alt. Az. Time Alt. Az.
23 Oct 4.4 00:45:22 21° NE 00:45:22 21° NE 00:47:13 10° NE visible
23 Oct 3.2 02:27:15 38° N 02:27:15 38° N 02:31:27 10° NNE visible
23 Oct 3.8 04:09:08 16° NW 04:11:37 21° NNW 04:15:51 10° NNE visible
24 Oct 4.6 00:31:41 18° NE 00:31:41 18° NE 00:33:06 10° NE visible
24 Oct 3.4 02:13:34 35° N 02:13:34 35° N 02:17:20 10° NNE visible
24 Oct 3.8 03:55:27 18° NW 03:57:28 21° NNW 04:01:43 10° NNE visible
25 Oct 4.8 00:18:00 15° NE 00:18:00 15° NE 00:18:59 10° NE visible
25 Oct 3.6 01:59:53 32° N 01:59:53 32° N 02:03:13 10° NNE visible
25 Oct 3.8 03:41:46 19° NW 03:43:19 21° NNW 03:47:36 10° NNE visible
25 Oct 4.1 05:25:33 10° NW 05:29:33 19° N 05:33:33 10° NE visible
26 Oct 4.9 00:04:18 13° NE 00:04:18 13° NE 00:04:51 10° NE visible
26 Oct 3.8 01:46:11 29° NNE 01:46:11 29° NNE 01:49:07 10° NNE visible
26 Oct 3.8 03:28:04 20° NW 03:29:09 21° NNW 03:33:28 10° NNE visible
26 Oct 4.1 05:11:25 10° NW 05:15:24 19° N 05:19:23 10° NE visible
26 Oct 5.1 23:50:36 11° NE 23:50:36 11° NE 23:50:44 10° NE visible
27 Oct 4.0 01:32:28 25° NNE 01:32:28 25° NNE 01:35:00 10° NNE visible
27 Oct 3.8 03:14:21 21° NNW 03:15:01 22° NNW 03:19:20 10° NNE visible
27 Oct 4.1 04:57:16 10° NW 05:01:15 19° N 05:05:13 10° NE visible
28 Oct 4.3 01:18:45 23° NNE 01:18:45 23° NNE 01:20:53 10° NNE visible
28 Oct 3.8 03:00:38 22° NNW 03:00:52 22° NNW 03:05:12 10° NNE visible
28 Oct 4.1 04:43:08 10° NW 04:47:06 19° N 04:51:03 10° NE visible
29 Oct 4.4 01:05:01 20° NNE 01:05:01 20° NNE 01:06:46 10° NNE visible
29 Oct 3.9 02:46:54 22° NNW 02:46:54 22° NNW 02:51:05 10° NNE visible
29 Oct 4.1 04:29:00 10° NW 04:32:56 19° N 04:36:53 10° NE visible
30 Oct 4.6 00:51:17 17° NNE 00:51:17 17° NNE 00:52:39 10° NNE visible
30 Oct 4.0 02:33:10 22° N 02:33:10 22° N 02:36:57 10° NNE visible
30 Oct 4.2 04:15:02 11° NW 04:18:47 19° N 04:22:43 10° NE visible
31 Oct 4.8 00:37:33 15° NNE 00:37:33 15° NNE 00:38:33 10° NNE visible
31 Oct 4.1 02:19:25 21° N 02:19:25 21° N 02:22:49 10° NNE visible
31 Oct 4.2 04:01:18 12° NNW 04:04:37 19° N 04:08:33 10° NE visible
31 Oct 3.6 05:45:32 10° NNW 05:50:34 31° NNE 05:55:35 10° E visible
01 Nov 4.9 00:23:49 13° NNE 00:23:49 13° NNE 00:24:25 10° NNE visible
01 Nov 4.2 02:05:41 21° N 02:05:41 21° N 02:08:42 10° NNE visible
01 Nov 4.2 03:47:34 13° NNW 03:50:28 19° N 03:54:23 10° NE visible
01 Nov 3.7 05:31:25 10° NNW 05:36:25 31° NNE 05:41:25 10° E visible
